London, United Kingdom

8:28 PM GMT on January 18, 2017 (GMT +0000)
Heathrow

Weather History for EGLL - March, 2014

Change the Weather History Date:

Tuesday, March 4, 2014

  Actual Average Record
Temperature  
Mean Temperature 42 °F -  
Max Temperature 51 °F 51 °F 57 °F (2003)
Min Temperature 32 °F 38 °F 21 °F (2006)
Degree Days  
Heating Degree Days 24    
Moisture  
Dew Point 36 °F    
Average Humidity 78    
Maximum Humidity 100    
Minimum Humidity 47    
Precipitation  
Precipitation 0.00 in - - ()
Sea Level Pressure  
Sea Level Pressure 29.64 in    
Wind  
Wind Speed 5 mph ()    
Max Wind Speed 10 mph    
Max Gust Speed -    
Visibility 8.0 miles    
Events Fog , Rain    
Averages and records for this station are not official NWS values.
T = Trace of Precipitation, MM = Missing Value Source: Averaged Metar Reports

Daily Weather History Graph

Daily Weather History Graph

Search for Another Location

Airport or City:

Trip Planner

Search our weather history database for the weather conditions in past years. The results will help you decide how hot, cold, wet, or windy it might be!

Date:

Astronomy

Mar. 04, 2014 Rise Set
Actual Time 6:40 AM GMT 5:47 PM GMT
Civil Twilight 6:07 AM GMT 6:20 PM GMT
Nautical Twilight 5:28 AM GMT 6:59 PM GMT
Astronomical Twilight 4:49 AM GMT 7:38 PM GMT
Moon 7:50 AM GMT (3/4) 10:09 PM GMT (3/4)
Length of Visible Light 12h 13m
Length of Day
11h 06m
Waxing Crescent, 13% of the Moon is Illuminated
Mar 4
Waxing Crescent
Mar 8
First Quarter
Mar 16
Full
Mar 24
Last Quarter
Mar 30
New

Hourly Weather History & Observations

Time (GMT) Temp. Windchill Dew Point Humidity Pressure Visibility Wind Dir Wind Speed Gust Speed Precip Events Conditions
12:00 AM 39 °F - 36 °F 84% 29.43 in 15 mi WNW 5.8 mph - -   Mostly Cloudy
12:20 AM 39.2 °F 35.9 °F 35.6 °F 87% 29.44 in - WNW 4.6 mph - N/A   Clear
12:50 AM 37.4 °F - 35.6 °F 93% 29.44 in - Variable 2.3 mph - N/A   Clear
1:00 AM 37 °F - 34 °F 86% 29.46 in 8 mi NW 2.3 mph - -   Scattered Clouds
1:20 AM 35.6 °F 31.7 °F 33.8 °F 93% 29.47 in 5.6 mi West 4.6 mph - N/A   Unknown
1:50 AM 35.6 °F 30.7 °F 33.8 °F 93% 29.47 in 3.1 mi West 5.8 mph - N/A   Unknown
2:00 AM 36 °F - 33 °F 87% 29.49 in 5 mi West 4.6 mph - -   Light Haze
2:20 AM 35.6 °F 32.8 °F 33.8 °F 93% 29.47 in 4.3 mi West 3.5 mph - N/A   Unknown
2:50 AM 37.4 °F 34.9 °F 35.6 °F 93% 29.50 in 5.6 mi West 3.5 mph - N/A   Unknown
3:00 AM 35 °F - 32 °F 85% 29.50 in 4 mi WSW 3.5 mph - -   Light Haze
3:20 AM 35.6 °F 31.7 °F 33.8 °F 93% 29.50 in 5.0 mi WSW 4.6 mph - N/A   Unknown
3:50 AM 35.6 °F 31.7 °F 33.8 °F 93% 29.50 in 5.0 mi West 4.6 mph - N/A   Unknown
4:00 AM 35 °F - 32 °F 86% 29.53 in 4 mi West 4.6 mph - -   Light Haze
4:20 AM 35.6 °F - 35.6 °F 100% 29.53 in 5.0 mi Variable 2.3 mph - N/A   Unknown
4:50 AM 35.6 °F - 33.8 °F 93% 29.53 in 5.0 mi WSW 2.3 mph - N/A   Unknown
5:00 AM 33 °F - 31 °F 89% 29.54 in 3 mi WSW 2.3 mph - -   Light Haze
5:20 AM 35.6 °F 31.7 °F 33.8 °F 93% 29.53 in 5.0 mi WSW 4.6 mph - N/A   Unknown
5:50 AM 35.6 °F 30.7 °F 33.8 °F 93% 29.56 in - West 5.8 mph - N/A   Clear
6:00 AM 33 °F - 31 °F 87% 29.56 in 9 mi WSW 6.9 mph - -  
6:20 AM 33.8 °F 28.6 °F 32.0 °F 93% 29.56 in 6.2 mi WSW 5.8 mph - N/A Fog Unknown
6:50 AM 32.0 °F 27.5 °F 32.0 °F 100% 29.56 in - Variable 4.6 mph - N/A   Clear
7:00 AM 34 °F - 32 °F 88% 29.58 in 9 mi West 2.3 mph - -  
7:20 AM 33.8 °F 28.6 °F 33.8 °F 100% 29.59 in - SW 5.8 mph - N/A   Clear
7:50 AM 35.6 °F 29.9 °F 33.8 °F 93% 29.59 in 5.6 mi SW 6.9 mph - N/A   Unknown
8:00 AM 37 °F - 33 °F 80% 29.61 in 12 mi SW 6.9 mph - -  
8:20 AM 37.4 °F 32.1 °F 35.6 °F 93% 29.59 in - WSW 6.9 mph - N/A   Clear
8:50 AM 41.0 °F 35.8 °F 35.6 °F 81% 29.62 in 6.2 mi West 8.1 mph - N/A   Scattered Clouds
9:00 AM 42 °F - 36 °F 71% 29.62 in 16 mi West 8.1 mph - -   Mostly Cloudy
9:20 AM 41.0 °F 34.7 °F 37.4 °F 87% 29.62 in 6.2 mi West 10.4 mph - N/A   Mostly Cloudy
9:50 AM 42.8 °F 37.5 °F 37.4 °F 81% 29.62 in 6.2 mi West 9.2 mph - N/A   Mostly Cloudy
10:00 AM 42 °F - 36 °F 73% 29.62 in 14 mi West 8.1 mph - -   Overcast
10:20 AM 44.6 °F 40.7 °F 37.4 °F 76% 29.62 in 6.2 mi WNW 6.9 mph - N/A   Mostly Cloudy
10:50 AM 44.6 °F 42.2 °F 39.2 °F 81% 29.62 in 6.2 mi West 4.6 mph - N/A   Mostly Cloudy
11:00 AM 46 °F - 38 °F 66% 29.62 in 16 mi West 5.8 mph - -   Overcast
11:20 AM 46.4 °F 43.5 °F 39.2 °F 76% 29.62 in 6.2 mi West 5.8 mph - N/A   Scattered Clouds
11:50 AM 48.2 °F - 39.2 °F 71% 29.62 in 6.2 mi WSW 9.2 mph - N/A   Scattered Clouds
12:00 PM 49 °F - 39 °F 60% 29.63 in 18 mi SW 6.9 mph - -   Partly Cloudy
12:20 PM 50.0 °F - 41.0 °F 71% 29.62 in 6.2 mi West 8.1 mph - N/A   Scattered Clouds
12:50 PM 48.2 °F - 37.4 °F 66% 29.62 in 6.2 mi West 6.9 mph - N/A   Mostly Cloudy
1:00 PM 49 °F - 37 °F 53% 29.64 in 22 mi West 5.8 mph - -   Scattered Clouds
1:20 PM 48.2 °F - 39.2 °F 71% 29.62 in 6.2 mi West 6.9 mph - N/A   Mostly Cloudy
1:50 PM 50.0 °F - 39.2 °F 66% 29.62 in 6.2 mi West 8.1 mph - N/A   Mostly Cloudy
2:00 PM 50 °F - 36 °F 48% 29.64 in 25 mi West 5.8 mph - -   Scattered Clouds
2:20 PM 48.2 °F - 39.2 °F 71% 29.62 in 6.2 mi West 10.4 mph - N/A   Mostly Cloudy
2:50 PM 48.2 °F - 39.2 °F 71% 29.65 in 6.2 mi West 10.4 mph - N/A   Scattered Clouds
3:00 PM 49 °F - 37 °F 52% 29.65 in 25 mi West 10.4 mph - - Rain Rain
3:20 PM 50.0 °F - 37.4 °F 62% 29.65 in 6.2 mi WSW 5.8 mph - N/A   Scattered Clouds
3:50 PM 50.0 °F - 39.2 °F 66% 29.65 in 6.2 mi West 5.8 mph - N/A   Scattered Clouds
4:00 PM 50 °F - 38 °F 52% 29.67 in 19 mi West 5.8 mph - -   Scattered Clouds
4:20 PM 50.0 °F - 37.4 °F 62% 29.68 in 6.2 mi West 5.8 mph - N/A   Partly Cloudy
4:50 PM 48.2 °F - 37.4 °F 66% 29.68 in 6.2 mi Variable 3.5 mph - N/A   Partly Cloudy
5:00 PM 50 °F - 36 °F 47% 29.69 in 19 mi WNW 3.5 mph - -   Mostly Cloudy
5:20 PM 50.0 °F - 37.4 °F 62% 29.71 in 6.2 mi SW 5.8 mph - N/A   Partly Cloudy
5:50 PM 48.2 °F - 39.2 °F 71% 29.71 in 6.2 mi WSW 5.8 mph - N/A   Partly Cloudy
6:00 PM 47 °F - 36 °F 54% 29.72 in 19 mi West 4.6 mph - -   Mostly Cloudy
6:20 PM 46.4 °F - 37.4 °F 71% 29.74 in 6.2 mi Variable 2.3 mph - N/A   Partly Cloudy
6:50 PM 48.2 °F - 37.4 °F 66% 29.74 in 6.2 mi Variable 2.3 mph - N/A   Partly Cloudy
7:00 PM 46 °F - 36 °F 57% 29.75 in 15 mi WNW 2.3 mph - -  
7:20 PM 46.4 °F - 37.4 °F 71% 29.74 in 6.2 mi Calm Calm - N/A   Partly Cloudy
7:50 PM 46.4 °F - 37.4 °F 71% 29.77 in 6.2 mi West 2.3 mph - N/A   Partly Cloudy
8:00 PM 46 °F - 36 °F 59% 29.78 in 13 mi West 2.3 mph - -   Scattered Clouds
8:20 PM 46.4 °F - 37.4 °F 71% 29.80 in 6.2 mi NW 2.3 mph - N/A   Partly Cloudy
8:50 PM 42.8 °F - 37.4 °F 81% 29.80 in - Variable 2.3 mph - N/A   Clear
9:00 PM 43 °F - 36 °F 69% 29.81 in 10 mi WSW 2.3 mph - -   Partly Cloudy
9:20 PM 42.8 °F - 37.4 °F 81% 29.80 in - Variable 2.3 mph - N/A   Clear
9:50 PM 41.0 °F - 37.4 °F 87% 29.83 in - Variable 2.3 mph - N/A   Clear
10:00 PM 42 °F - 36 °F 72% 29.83 in 9 mi West 2.3 mph - -   Mostly Cloudy
10:20 PM 41.0 °F - 35.6 °F 81% 29.83 in - Calm Calm - N/A   Clear
10:50 PM 39.2 °F - 35.6 °F 87% 29.86 in - Variable 2.3 mph - N/A   Clear
11:00 PM 40 °F - 35 °F 78% 29.86 in 9 mi West 2.3 mph - -  
11:20 PM 37.4 °F - 35.6 °F 93% 29.86 in - Calm Calm - N/A   Clear
11:50 PM 39.2 °F - 35.6 °F 87% 29.89 in - West 2.3 mph - N/A   Clear